EW0627 Weather Reports


Display with metric or nautical units.
time (UTC)temp
F
wind
direction
speed
MPH
gust
MPH
rain 1hr
in
rain 24hr
in
rain mn
in
humidity
%
barometer
mb
20181023161623 80 17 0.0 1.0 0.00 0.00 0.00 67 1018.9
20181023154610 80 112 2.0 5.0 0.00 0.00 0.00 61 1019.3
20181023153050 79 93 1.0 5.0 0.00 0.00 0.00 62 1019.3
20181023151603 79 114 2.0 5.0 0.00 0.00 0.00 62 1019.5
20181023144704 79 119 3.0 9.0 0.00 0.00 0.00 64 1019.4
20181023143148 78 100 1.0 6.0 0.00 0.00 0.00 66 1019.6
20181023141742 78 103 2.0 6.0 0.00 0.00 0.00 68 1019.6
20181023134609 75 119 1.0 3.0 0.00 0.00 0.00 75 1019.4
20181023133122 73 66 1.0 3.0 0.00 0.00 0.00 78 1019.7
20181023131631 72 35 0.0 3.0 0.00 0.00 0.00 80 1019.5
20181023124611 70 81 0.0 4.0 0.00 0.00 0.00 82 1019.0
20181023123110 69 82 0.0 2.0 0.00 0.00 0.00 85 1018.9
20181023121609 67 95 0.0 2.0 0.00 0.00 0.00 88 1019.0
20181023114642 66 94 0.0 1.0 0.00 0.00 0.00 88 1018.8
20181023113115 66 89 0.0 2.0 0.00 0.00 0.00 88 1018.8
20181023111648 67 136 1.0 2.0 0.00 0.00 0.00 88 1018.6
20181023104617 67 103 1.0 4.0 0.00 0.00 0.00 87 1018.4
20181023103126 65 17 0.0 0.0 0.00 0.00 0.00 89 1018.4
20181023101615 65 17 0.0 0.0 0.00 0.00 0.00 89 1018.3
20181023094614 65 17 0.0 0.0 0.00 0.00 0.00 89 1018.1
20181023093047 65 17 0.0 0.0 0.00 0.00 0.00 88 1018.1
20181023084557 65 17 0.0 0.0 0.00 0.00 0.00 88 1018.1
20181023083049 66 17 0.0 0.0 0.00 0.00 0.00 88 1018.1
20181023081628 66 17 0.0 0.0 0.00 0.00 0.00 88 1018.2
20181023074647 66 17 0.0 0.0 0.00 0.00 0.00 87 1018.4
20181023073104 66 17 0.0 0.0 0.00 0.00 0.00 87 1018.4
20181023071555 66 17 0.0 0.0 0.00 0.00 0.00 86 1018.3
20181023064623 67 17 0.0 0.0 0.00 0.00 0.00 86 1018.6
20181023063123 67 17 0.0 0.0 0.00 0.00 0.00 85 1018.7
20181023061627 67 17 0.0 0.0 0.00 0.00 0.00 85 1018.7
20181023054637 67 17 0.0 0.0 0.00 0.00 0.00 85 1018.9
20181023053141 68 17 0.0 0.0 0.00 0.00 0.00 84 1018.8
20181023051619 68 17 0.0 0.0 0.00 0.00 0.00 84 1019.0
20181023044643 68 17 0.0 0.0 0.00 0.00 0.00 83 1019.4
20181023043116 69 17 0.0 0.0 0.00 0.00 0.00 82 1019.6
20181023041636 69 17 0.0 0.0 0.00 0.00 0.00 82 1019.7
20181023040002 69 17 0.0 0.0 0.00 0.00 0.00 81 1019.6
20181023034636 69 17 0.0 0.0 0.00 0.00 0.00 81 1019.6
20181023033202 70 17 0.0 0.0 0.00 0.00 0.00 80 1019.8
20181023031643 70 17 0.0 0.0 0.00 0.00 0.00 79 1019.8
20181023024620 71 17 0.0 0.0 0.00 0.00 0.00 78 1020.1
20181023023124 71 17 0.0 0.0 0.00 0.00 0.00 77 1020.1
20181023021706 71 17 0.0 0.0 0.00 0.00 0.00 76 1020.0
20181023020011 72 17 0.0 0.0 0.00 0.00 0.00 75 1020.0
20181023014505 72 17 0.0 0.0 0.00 0.00 0.00 74 1020.0
20181023013127 72 17 0.0 0.0 0.00 0.00 0.00 73 1019.9
20181023011756 73 17 0.0 0.0 0.00 0.00 0.00 72 1019.7
20181023004621 73 17 0.0 0.0 0.00 0.00 0.00 70 1019.4
20181023003339 73 17 0.0 0.0 0.00 0.00 0.00 69 1019.3
20181023001612 73 17 0.0 0.0 0.00 0.00 0.00 69 1019.3
20181023000019 73 17 0.0 0.0 0.00 0.00 0.00 67 1019.2
20181022234612 74 17 0.0 0.0 0.00 0.00 0.00 65 1019.0
20181022233206 75 17 0.0 0.0 0.00 0.00 0.00 65 1018.7
20181022231628 76 17 0.0 0.0 0.00 0.00 0.00 61 1018.6
20181022224702 77 17 0.0 0.0 0.00 0.00 0.00 60 1018.4
20181022223107 78 17 0.0 2.0 0.00 0.00 0.00 56 1018.3
20181022221635 78 17 0.0 2.0 0.00 0.00 0.00 57 1018.3
20181022214650 80 355 0.0 0.0 0.00 0.00 0.00 58 1018.5
20181022213151 80 355 0.0 1.0 0.00 0.00 0.00 57 1018.5
20181022211558 81 355 0.0 0.0 0.00 0.00 0.00 56 1018.5
20181022204608 82 355 0.0 3.0 0.00 0.00 0.00 55 1018.6
20181022203117 83 355 0.0 2.0 0.00 0.00 0.00 53 1018.6
20181022201554 84 355 0.0 3.0 0.00 0.00 0.00 55 1018.6
20181022194636 83 76 3.0 8.0 0.00 0.00 0.00 46 1018.7
20181022193057 83 72 2.0 5.0 0.00 0.00 0.00 46 1018.7
20181022191633 83 26 2.0 6.0 0.00 0.00 0.00 50 1018.8
20181022184555 83 43 3.0 9.0 0.00 0.00 0.00 50 1019.0
20181022183117 83 103 3.0 10.0 0.00 0.00 0.00 52 1019.0
20181022181608 82 96 4.0 8.0 0.00 0.00 0.00 51 1019.4
20181022174612 82 110 2.0 10.0 0.00 0.00 0.00 53 1019.6
20181022173111 82 107 5.0 12.0 0.00 0.00 0.00 51 1019.8
20181022171610 81 86 5.0 12.0 0.00 0.00 0.00 52 1020.0
20181022164637 80 77 6.0 13.0 0.00 0.00 0.00 54 1020.4
20181022163115 79 142 5.0 14.0 0.00 0.00 0.00 55 1020.4